FW4012 Weather Reports


Display with metric or nautical units.
time (UTC)temp
F
wind
direction
speed
MPH
gust
MPH
rain 1hr
in
rain 24hr
in
rain mn
in
humidity
%
barometer
mb
20260510230729 55 317 2.0 3.0 0.04 3.03 0.01 92 1009.8
20260510230226 55 317 1.0 3.0 0.04 3.03 0.01 92 1009.8
20260510225755 55 317 1.0 2.0 0.04 3.03 0.01 92 1009.9
20260510225233 55 317 1.0 2.0 0.04 3.03 0.01 92 1009.9
20260510224751 55 317 0.0 1.0 0.04 3.03 0.01 92 1010.0
20260510224229 55 317 0.0 3.0 0.04 3.03 0.01 92 1010.0
20260510223729 55 317 2.0 3.0 0.00 2.99 0.00 92 1010.0
20260510223227 55 317 1.0 3.0 0.00 2.99 0.00 92 1010.1
20260510222723 55 317 1.0 3.0 0.04 2.99 0.00 92 1010.0
20260510222224 55 317 2.0 3.0 0.04 2.99 0.00 92 1010.1
20260510221747 55 313 2.0 3.0 0.04 2.99 0.00 91 1010.1
20260510221249 55 313 2.0 3.0 0.04 2.99 0.00 91 1010.0
20260510220747 55 313 2.0 3.0 0.04 2.99 0.00 91 1010.1
20260510220243 55 315 2.0 3.0 0.04 2.99 0.00 91 1010.1
20260510215802 55 315 1.0 3.0 0.04 2.99 0.76 91 1010.1
20260510215239 55 315 0.0 2.0 0.04 2.99 0.76 91 1010.1
20260510214737 55 315 0.0 3.0 0.04 2.99 0.76 91 1010.2
20260510214235 55 315 1.0 3.0 0.04 2.99 0.76 91 1010.2
20260510213736 56 315 2.0 3.0 0.04 2.99 0.76 91 1010.2
20260510213236 56 312 2.0 3.0 0.04 2.99 0.76 91 1010.3
20260510212731 55 329 0.0 0.0 0.00 2.95 0.75 91 1010.3
20260510212229 55 70 0.0 0.0 0.00 2.95 0.75 91 1010.4
20260510211759 55 70 0.0 0.0 0.00 2.95 0.75 91 1010.5
20260510211239 56 70 0.0 0.0 0.00 2.95 0.75 91 1010.5
20260510210739 56 70 0.0 0.0 0.00 2.95 0.75 91 1010.6
20260510210239 56 70 0.0 0.0 0.00 2.95 0.75 91 1010.6
20260510205739 56 70 0.0 0.0 0.00 2.95 0.75 91 1010.7
20260510205259 56 70 0.0 0.0 0.00 2.95 0.75 91 1010.8
20260510204738 56 70 0.0 0.0 0.00 2.95 0.75 91 1010.8
20260510204238 56 70 0.0 0.0 0.00 2.95 0.75 91 1010.7
20260510203734 55 70 0.0 0.0 0.00 2.95 0.75 91 1010.8
20260510203234 56 70 0.0 0.0 0.00 2.95 0.75 91 1010.7
20260510202736 56 70 0.0 0.0 0.00 2.95 0.75 91 1010.8
20260510202255 56 70 0.0 0.0 0.00 2.95 0.75 91 1010.8
20260510201805 56 70 0.0 0.0 0.00 2.95 0.75 91 1011.0
20260510201304 55 70 0.0 0.0 0.00 2.95 0.75 91 1011.0
20260510200803 55 70 0.0 0.0 0.00 2.95 0.75 91 1011.0
20260510200242 55 70 0.0 0.0 0.00 2.95 0.75 91 1011.1
20260510195741 55 70 0.0 0.0 0.00 2.95 0.75 91 1011.2
20260510195236 55 70 0.0 0.0 0.00 2.95 0.75 91 1011.0
20260510194737 55 70 0.0 1.0 0.00 2.95 0.75 91 1011.0
20260510194237 55 70 0.0 2.0 0.00 2.95 0.75 90 1011.1
20260510193736 55 70 1.0 3.0 0.00 2.95 0.75 90 1011.1
20260510193305 55 90 1.0 3.0 0.00 2.95 0.75 91 1011.0
20260510192742 56 46 0.0 2.0 0.00 2.95 0.75 90 1011.1
20260510192306 56 83 1.0 4.0 0.00 2.95 0.75 90 1011.0
20260510191803 56 82 1.0 4.0 0.00 2.95 0.75 90 1011.0
20260510191241 56 109 1.0 2.0 0.00 2.95 0.75 90 1011.1
20260510190738 56 87 1.0 4.0 0.00 2.95 0.75 90 1011.0
20260510190238 56 87 1.0 4.0 0.00 2.95 0.75 90 1011.0
20260510185736 56 71 0.0 2.0 0.00 2.95 0.75 90 1011.0
20260510185237 56 47 0.0 2.0 0.00 2.95 0.75 90 1010.9
20260510184737 56 27 1.0 4.0 0.00 2.95 0.75 90 1010.9
20260510184235 56 27 2.0 4.0 0.00 2.95 0.75 90 1010.9
20260510183755 56 53 1.0 3.0 0.00 2.95 0.75 90 1010.8
20260510183234 56 31 0.0 2.0 0.00 2.95 0.75 90 1010.8
20260510182733 56 26 0.0 0.0 0.00 2.95 0.75 90 1010.8
20260510182234 56 21 0.0 0.0 0.00 2.95 0.75 90 1010.7
20260510181804 56 21 0.0 0.0 0.00 2.95 0.75 90 1010.8
20260510181239 56 22 0.0 1.0 0.00 2.95 0.75 90 1010.7
20260510180738 56 22 0.0 2.0 0.00 2.95 0.75 90 1010.7
20260510180236 56 22 1.0 3.0 0.00 2.95 0.75 90 1010.7
20260510175755 56 30 2.0 4.0 0.00 2.95 0.75 90 1010.8
20260510175232 56 42 2.0 4.0 0.00 2.95 0.75 89 1010.6
20260510174731 56 67 1.0 3.0 0.00 2.95 0.75 89 1010.5
20260510174300 56 67 1.0 3.0 0.00 2.95 0.75 89 1010.7
20260510173738 56 64 1.0 3.0 0.00 2.95 0.75 89 1010.8
20260510173238 56 64 1.0 3.0 0.00 2.95 0.75 89 1010.9
20260510172731 56 26 2.0 6.0 0.00 2.95 0.75 89 1010.8
20260510172249 56 84 2.0 6.0 0.00 2.95 0.75 89 1010.7
20260510171749 57 86 1.0 2.0 0.00 2.95 0.75 89 1010.8
20260510171247 57 86 1.0 3.0 0.00 2.95 0.75 89 1010.9
20260510170748 57 86 0.0 3.0 0.00 2.95 0.75 89 1010.9
20260510170308 57 109 1.0 3.0 0.00 2.95 0.75 89 1010.8
20260510165803 57 86 1.0 3.0 0.00 2.95 0.75 89 1010.8
20260510165234 57 113 1.0 3.0 0.04 2.95 0.75 88 1010.8
20260510164731 57 101 1.0 4.0 0.04 2.95 0.75 88 1010.8
20260510164227 57 111 2.0 4.0 0.04 2.95 0.75 88 1010.7
20260510163751 57 65 1.0 2.0 0.04 2.95 0.75 88 1010.8
20260510163230 57 101 0.0 3.0 0.04 2.95 0.75 88 1011.0
20260510162755 57 101 1.0 4.0 0.04 2.95 0.75 88 1010.9
20260510162253 57 109 3.0 4.0 0.04 2.95 0.75 88 1010.9
20260510161732 57 133 2.0 3.0 0.04 2.95 0.75 87 1011.1
20260510160743 57 96 1.0 3.0 0.08 2.95 0.75 87 1011.2
20260510160303 57 96 2.0 4.0 0.12 2.95 0.75 88 1011.2
20260510155723 58 92 2.0 3.0 0.12 2.95 0.75 87 1011.2
20260510155223 58 126 1.0 3.0 0.08 2.91 0.74 88 1011.3
20260510154751 58 84 0.0 2.0 0.08 2.91 0.74 87 1011.4
20260510154251 58 82 0.0 2.0 0.08 2.91 0.74 87 1011.5
20260510153731 58 81 0.0 2.0 0.08 2.91 0.74 87 1011.4
20260510153226 58 78 1.0 2.0 0.08 2.91 0.74 87 1011.4
20260510152725 58 77 0.0 2.0 0.08 2.91 0.74 87 1011.5
20260510152245 58 78 0.0 2.0 0.08 2.91 0.74 87 1011.5
20260510151734 58 76 0.0 2.0 0.08 2.91 0.74 87 1011.5
20260510151233 58 76 1.0 4.0 0.04 2.87 0.73 86 1011.5
20260510150730 58 101 2.0 4.0 0.04 2.87 0.73 86 1011.4
20260510150250 58 121 1.0 2.0 0.00 2.83 0.72 86 1011.5
20260510145728 58 128 0.0 3.0 0.00 2.83 0.72 85 1011.6
20260510145255 58 128 2.0 3.0 0.00 2.83 0.72 85 1011.6
20260510144749 59 128 1.0 7.0 0.00 2.83 0.72 85 1011.6
20260510144228 59 130 4.0 7.0 0.00 2.83 0.72 85 1011.7
20260510143728 59 138 3.0 4.0 0.00 2.83 0.72 86 1011.7
20260510143227 59 164 2.0 5.0 0.00 2.83 0.72 85 1011.8
20260510142727 59 164 2.0 5.0 0.00 2.83 0.72 85 1011.8
20260510142248 59 162 2.0 5.0 0.00 2.83 0.72 86 1011.8
20260510141725 59 162 2.0 5.0 0.00 2.83 0.72 86 1011.7
20260510141225 59 162 2.0 5.0 0.00 2.83 0.72 86 1011.7
20260510140724 59 177 2.0 3.0 0.00 2.83 0.72 86 1011.9
20260510140250 58 177 1.0 3.0 0.00 2.83 0.72 86 1011.9
20260510135744 58 137 0.0 3.0 0.00 2.83 0.72 85 1011.9
20260510135243 58 138 1.0 6.0 0.00 2.83 0.72 85 1012.0
20260510134743 58 134 3.0 7.0 0.00 2.83 0.72 84 1012.0
20260510134240 59 152 2.0 7.0 0.00 2.83 0.72 84 1012.1
20260510133737 59 179 3.0 8.0 0.00 2.83 0.72 84 1012.1
20260510133238 59 168 2.0 8.0 0.00 2.83 0.72 86 1012.1
20260510132736 59 190 3.0 7.0 0.00 2.83 0.72 86 1012.1
20260510132237 59 130 3.0 7.0 0.00 2.83 0.72 87 1012.2
20260510131736 58 132 4.0 7.0 0.00 2.83 0.72 87 1012.4
20260510131236 58 153 2.0 7.0 0.00 2.83 0.72 88 1012.5
20260510130734 58 139 3.0 6.0 0.04 2.83 0.72 88 1012.5
20260510130235 59 144 0.0 3.0 0.04 2.83 0.72 89 1012.4
20260510125751 58 143 1.0 7.0 0.04 2.83 0.72 89 1012.4
20260510125229 58 119 4.0 7.0 0.04 2.83 0.72 89 1012.3
20260510124728 58 123 1.0 6.0 0.04 2.83 0.72 90 1012.3
20260510124227 58 124 3.0 7.0 0.08 2.83 0.72 90 1012.4
20260510123726 58 123 4.0 7.0 0.12 2.83 0.72 89 1012.5
20260510123227 58 95 2.0 7.0 0.16 2.83 0.72 90 1012.5
20260510122728 58 109 3.0 7.0 0.20 2.83 0.72 91 1012.7
20260510122228 58 108 2.0 5.0 0.24 2.83 0.72 91 1012.8
20260510121728 58 72 3.0 5.0 0.24 2.83 0.72 90 1012.7
20260510121257 58 26 1.0 3.0 0.24 2.83 0.72 91 1012.8
20260510120734 58 26 1.0 4.0 0.24 2.80 0.71 92 1012.9
20260510120247 58 24 2.0 4.0 0.28 2.80 0.71 92 1012.9
20260510115726 58 27 1.0 3.0 0.28 2.80 0.71 92 1013.0
20260510115246 58 27 1.0 4.0 0.28 2.80 0.71 92 1012.9
20260510114724 58 340 2.0 4.0 0.31 2.80 0.71 92 1013.0
20260510114252 58 33 2.0 4.0 0.28 2.76 0.70 92 1013.0
20260510113741 58 329 3.0 5.0 0.28 2.72 0.69 92 1013.1
20260510113238 58 11 3.0 5.0 0.28 2.68 0.68 93 1013.0
20260510112737 59 302 2.0 5.0 0.24 2.64 0.67 93 1013.1
20260510112259 59 350 3.0 5.0 0.24 2.60 0.66 93 1013.2
20260510111838 59 24 2.0 4.0 0.28 2.60 0.66 93 1013.1
20260510111233 59 306 3.0 6.0 0.35 2.56 0.65 93 1013.2
20260510110728 59 344 3.0 6.0 0.39 2.56 0.65 93 1013.2
20260510110245 59 336 3.0 6.0 0.39 2.52 0.64 93 1013.3
20260510105742 59 324 4.0 6.0 0.39 2.52 0.64 93 1013.3
20260510105239 58 304 4.0 6.0 0.39 2.48 0.63 93 1013.3
20260510104734 59 288 4.0 7.0 0.39 2.48 0.63 93 1013.3
20260510104231 58 320 4.0 6.0 0.39 2.48 0.63 93 1013.3
20260510103728 58 337 3.0 6.0 0.39 2.44 0.62 93 1013.4
20260510103227 58 320 3.0 6.0 0.35 2.40 0.61 93 1013.5
20260510102727 58 323 3.0 4.0 0.39 2.40 0.61 93 1013.4
20260510102226 58 9 2.0 5.0 0.39 2.36 0.60 93 1013.3
20260510101732 58 10 3.0 8.0 0.31 2.28 0.58 93 1013.5
20260510101231 58 343 4.0 8.0 0.28 2.20 0.56 93 1013.5
20260510100725 58 319 3.0 6.0 0.24 2.17 0.55 93 1013.4
20260510100245 58 20 3.0 6.0 0.24 2.13 0.54 93 1013.5
20260510095748 58 315 4.0 6.0 0.28 2.13 0.54 93 1013.4
20260510095229 58 325 4.0 6.0 0.31 2.09 0.53 93 1013.4
20260510094753 58 344 2.0 5.0 0.35 2.09 0.53 93 1013.4
20260509233742 54 342 3.0 3.0 0.00 0.00 0.00 86 1013.7
20260509233257 54 343 2.0 3.0 0.00 0.00 0.00 86 1013.7
20260509232747 54 343 2.0 3.0 0.00 0.00 0.00 86 1013.8
20260509232250 54 343 1.0 3.0 0.00 0.00 0.00 86 1013.9
20260509231742 54 343 1.0 3.0 0.00 0.00 0.00 86 1013.9
20260509231239 54 344 0.0 1.0 0.00 0.00 0.00 85 1013.9